Onalaska, WI

2:48 AM CDT on August 31, 2016 (GMT -0500)
La Crosse Municipal

Weather History for KLSE - May, 2014

Change the Weather History Date:

Wednesday, May 7, 2014

  Actual Average Record
Temperature  
Mean Temperature 59 °F 57 °F  
Max Temperature 66 °F 68 °F 88 °F (1970)
Min Temperature 51 °F 46 °F 29 °F (1890)
Degree Days  
Heating Degree Days 6 9  
Month to date heating degree days 83 66  
Since 1 July heating degree days 8023 7018  
Cooling Degree Days 0 1  
Month to date cooling degree days 0 5  
Year to date cooling degree days 0 12  
Growing Degree Days 8 (Base 50)    
Moisture  
Dew Point 43 °F    
Average Humidity 64    
Maximum Humidity 77    
Minimum Humidity 50    
Precipitation  
Precipitation 0.00 in 0.11 in 1.31 in (1998)
Month to date precipitation 0.17 0.80  
Year to date precipitation 10.87 8.35  
Snow  
Snow 0.00 in 0.00 in 0.00 in (2000)
Month to date snowfall 0.0 0.1  
Since 1 July snowfall 48.9 43.4  
Snow Depth 0.00 in    
Sea Level Pressure  
Sea Level Pressure 29.76 in    
Wind  
Wind Speed 11 mph (ESE)    
Max Wind Speed 21 mph    
Max Gust Speed 27 mph    
Visibility 10 miles    
Events      
T = Trace of Precipitation, MM = Missing Value Source: NWS Daily Summary

Daily Weather History Graph

Daily Weather History Graph

Search for Another Location

Airport or City:

Trip Planner

Search our weather history database for the weather conditions in past years. The results will help you decide how hot, cold, wet, or windy it might be!

Date:

Astronomy

May. 07, 2014 Rise Set
Actual Time 5:48 AM CDT 8:15 PM CDT
Civil Twilight 5:16 AM CDT 8:47 PM CDT
Nautical Twilight 4:36 AM CDT 9:27 PM CDT
Astronomical Twilight 3:51 AM CDT 10:13 PM CDT
Moon 1:06 PM CDT (5/7) 2:02 AM CDT (5/7)
Length of Visible Light 15h 31m
Length of Day
14h 26m
First Quarter, 55% of the Moon is Illuminated
May 7
First Quarter
May 14
Full
May 21
Last Quarter
May 28
New
Jun 5
First Quarter

Hourly Weather History & Observations

Time (CDT) Temp. Dew Point Humidity Pressure Visibility Wind Dir Wind Speed Gust Speed Precip Events Conditions
12:53 AM 55.9 °F 37.9 °F 51% 29.82 in 10.0 mi East 15.0 mph 20.7 mph N/A   Overcast
1:53 AM 54.0 °F 36.0 °F 51% 29.79 in 10.0 mi East 10.4 mph - N/A   Mostly Cloudy
2:53 AM 53.1 °F 35.1 °F 50% 29.78 in 10.0 mi East 8.1 mph - N/A   Overcast
3:53 AM 52.0 °F 35.1 °F 53% 29.78 in 10.0 mi East 5.8 mph - N/A   Overcast
4:53 AM 51.1 °F 37.0 °F 59% 29.78 in 10.0 mi East 6.9 mph - N/A   Partly Cloudy
5:53 AM 51.1 °F 37.9 °F 61% 29.77 in 10.0 mi ESE 5.8 mph - N/A   Clear
6:53 AM 52.0 °F 39.0 °F 61% 29.78 in 10.0 mi East 11.5 mph - N/A   Clear
7:53 AM 53.1 °F 39.9 °F 61% 29.83 in 10.0 mi East 11.5 mph - N/A   Mostly Cloudy
8:53 AM 53.1 °F 39.0 °F 59% 29.83 in 10.0 mi ENE 13.8 mph - N/A   Overcast
9:53 AM 55.0 °F 39.9 °F 57% 29.79 in 10.0 mi East 10.4 mph 23.0 mph N/A   Partly Cloudy
10:53 AM 57.0 °F 41.0 °F 55% 29.79 in 10.0 mi ESE 15.0 mph - N/A   Overcast
12:53 PM 63.0 °F 46.0 °F 54% 29.75 in 10.0 mi ESE 18.4 mph 25.3 mph N/A   Mostly Cloudy
1:53 PM 66.0 °F 48.9 °F 54% 29.75 in 10.0 mi SE 15.0 mph - N/A   Mostly Cloudy
2:53 PM 64.0 °F 48.9 °F 58% 29.76 in 10.0 mi East 12.7 mph 23.0 mph N/A   Overcast
3:53 PM 64.9 °F 48.9 °F 56% 29.74 in 10.0 mi ESE 15.0 mph 23.0 mph N/A   Overcast
4:53 PM 64.0 °F 48.0 °F 56% 29.73 in 10.0 mi East 16.1 mph 21.9 mph N/A   Clear
5:53 PM 64.0 °F 48.0 °F 56% 29.71 in 10.0 mi East 10.4 mph - N/A   Clear
6:53 PM 62.1 °F 48.0 °F 60% 29.71 in 10.0 mi East 10.4 mph - N/A   Clear
7:53 PM 61.0 °F 48.9 °F 64% 29.70 in 10.0 mi ESE 12.7 mph 20.7 mph N/A   Clear
8:53 PM 59.0 °F 48.0 °F 67% 29.73 in 10.0 mi ESE 9.2 mph - N/A   Clear
9:53 PM 57.0 °F 48.0 °F 72% 29.72 in 10.0 mi ESE 6.9 mph - N/A   Clear
10:53 PM 55.9 °F 48.0 °F 75% 29.73 in 10.0 mi SE 5.8 mph - N/A   Clear
11:53 PM 55.9 °F 48.0 °F 75% 29.73 in 10.0 mi SE 6.9 mph - N/A   Clear